Observation data for Silverton on 10/26/2020      Previous  Date  Next       Current Mesonet Observations  Soil Data  Daily Summary Page  Observations in Plain Language
KSVS 260500Z 02011KT M01/M01 A3012 RMK A01 T10111012  RH  100%=      5-min Rain = 0
KSVS 260505Z 02010KT M01/M01 A3012 RMK A01 T10121013  RH  100%=      5-min Rain = 0
KSVS 260510Z 02010KT M01/M02 A3012 RMK A01 T10141015  RH  100%=      5-min Rain = 0
KSVS 260515Z 02009KT M01/M02 A3012 RMK A01 T10141015  RH  100%=      5-min Rain = 0
KSVS 260520Z 02008KT M01/M02 A3013 RMK A01 T10141015  RH  100%=      5-min Rain = 0
KSVS 260525Z 03008KT M01/M02 A3013 RMK A01 T10141015  RH  100%=      5-min Rain = 0
KSVS 260530Z 03008KT M01/M02 A3012 RMK A01 T10141016  RH  100%=      5-min Rain = 0
KSVS 260535Z 02007KT M01/M02 A3014 RMK A01 T10141015  RH  100%=      5-min Rain = 0
KSVS 260540Z 03007KT M02/M02 A3013 RMK A01 T10151016  RH  100%=      5-min Rain = 0
KSVS 260545Z 03007KT M02/M02 A3012 RMK A01 T10151016  RH  100%=      5-min Rain = 0
KSVS 260550Z 03007KT M02/M02 A3012 RMK A01 T10161017  RH  100%=      5-min Rain = 0
KSVS 260555Z 03007KT M02/M02 A3013 RMK A01 T10161017  RH  100%=      5-min Rain = 0
KSVS 260600Z 02006KT M02/M02 A3013 RMK A01 T10171018  RH  100%=      5-min Rain = 0
KSVS 260605Z 02006KT M02/M02 A3012 RMK A01 T10191020  RH  100%=      5-min Rain = 0
KSVS 260610Z 03006KT M02/M02 A3012 RMK A01 T10181019  RH  100%=      5-min Rain = 0
KSVS 260615Z 02005KT M02/M02 A3012 RMK A01 T10171018  RH  100%=      5-min Rain = 0
KSVS 260620Z 02005KT M02/M02 A3012 RMK A01 T10171019  RH  100%=      5-min Rain = 0
KSVS 260625Z 02005KT M02/M02 A3013 RMK A01 T10171018  RH  100%=      5-min Rain = 0
KSVS 260630Z 02004KT M02/M02 A3013 RMK A01 T10171018  RH  100%=      5-min Rain = 0
KSVS 260635Z 02005KT M02/M02 A3013 RMK A01 T10181019  RH  100%=      5-min Rain = 0
KSVS 260640Z 02004KT M02/M02 A3013 RMK A01 T10181019  RH  100%=      5-min Rain = 0
KSVS 260645Z 01004KT M02/M02 A3014 RMK A01 T10191020  RH  100%=      5-min Rain = 0
KSVS 260650Z 01004KT M02/M02 A3014 RMK A01 T10201021  RH  100%=      5-min Rain = 0
KSVS 260655Z 01004KT M02/M02 A3015 RMK A01 T10211022  RH  100%=      5-min Rain = 0
KSVS 260700Z 01004KT M02/M02 A3015 RMK A01 T10211023  RH  100%=      5-min Rain = 0
KSVS 260705Z 01003KT M02/M02 A3016 RMK A01 T10201021  RH  100%=      5-min Rain = 0
KSVS 260710Z 02003KT M02/M02 A3016 RMK A01 T10201021  RH  100%=      5-min Rain = 0
KSVS 260715Z 01004KT M02/M02 A3015 RMK A01 T10191021  RH  100%=      5-min Rain = 0
KSVS 260720Z 02004KT M02/M02 A3014 RMK A01 T10201021  RH  100%=      5-min Rain = 0
KSVS 260725Z 02004KT M02/M02 A3013 RMK A01 T10221024  RH  100%=      5-min Rain = 0
KSVS 260730Z 02004KT M02/M03 A3013 RMK A01 T10241026  RH  099%=      5-min Rain = 0
KSVS 260735Z 03004KT M02/M03 A3012 RMK A01 T10241026  RH  099%=      5-min Rain = 0
KSVS 260740Z 02004KT M03/M03 A3012 RMK A01 T10251026  RH  100%=      5-min Rain = 0
KSVS 260745Z 01004KT M03/M03 A3014 RMK A01 T10251026  RH  100%=      5-min Rain = 0
KSVS 260750Z 01005KT M03/M03 A3015 RMK A01 T10281030  RH  099%=      5-min Rain = 0
KSVS 260755Z 01004KT M03/M03 A3014 RMK A01 T10291031  RH  099%=      5-min Rain = 0
KSVS 260800Z 01004KT M03/M03 A3014 RMK A01 T10291031  RH  099%=      5-min Rain = 0
KSVS 260805Z 01005KT M03/M03 A3015 RMK A01 T10301033  RH  099%=      5-min Rain = 0
KSVS 260810Z 01004KT M03/M03 A3015 RMK A01 T10311033  RH  099%=      5-min Rain = 0
KSVS 260815Z 01004KT M03/M03 A3015 RMK A01 T10311034  RH  099%=      5-min Rain = 0
KSVS 260820Z 01004KT M03/M03 A3015 RMK A01 T10311034  RH  098%=      5-min Rain = 0
KSVS 260825Z 01004KT M03/M04 A3016 RMK A01 T10321035  RH  098%=      5-min Rain = 0
KSVS 260830Z 01004KT M03/M03 A3015 RMK A01 T10311034  RH  098%=      5-min Rain = 0
KSVS 260835Z 02004KT M03/M04 A3014 RMK A01 T10321035  RH  098%=      5-min Rain = 0
KSVS 260840Z 02004KT M03/M04 A3015 RMK A01 T10321035  RH  098%=      5-min Rain = 0
KSVS 260845Z 02004KT M03/M03 A3016 RMK A01 T10311034  RH  098%=      5-min Rain = 0
KSVS 260850Z 02004KT M03/M03 A3015 RMK A01 T10301033  RH  099%=      5-min Rain = 0
KSVS 260855Z 02004KT M03/M03 A3015 RMK A01 T10301032  RH  099%=      5-min Rain = 0
KSVS 260900Z 02004KT M03/M03 A3015 RMK A01 T10301032  RH  099%=      5-min Rain = 0
KSVS 260905Z 02004KT M03/M03 A3015 RMK A01 T10301032  RH  099%=      5-min Rain = 0
KSVS 260910Z 02004KT M03/M03 A3015 RMK A01 T10291031  RH  099%=      5-min Rain = 0
KSVS 260915Z 01003KT M03/M03 A3015 RMK A01 T10281031  RH  099%=      5-min Rain = 0
KSVS 260920Z 02004KT M03/M03 A3015 RMK A01 T10291031  RH  099%=      5-min Rain = 0
KSVS 260925Z 01004KT M03/M03 A3016 RMK A01 T10301033  RH  099%=      5-min Rain = 0
KSVS 260930Z 01004KT M03/M03 A3016 RMK A01 T10301032  RH  099%=      5-min Rain = 0
KSVS 260935Z 01004KT M03/M03 A3015 RMK A01 T10301032  RH  099%=      5-min Rain = 0
KSVS 260940Z 01004KT M03/M03 A3014 RMK A01 T10311033  RH  099%=      5-min Rain = 0
KSVS 260945Z 01004KT M03/M03 A3014 RMK A01 T10311033  RH  099%=      5-min Rain = 0
KSVS 260950Z 01005KT M03/M03 A3014 RMK A01 T10321034  RH  099%=      5-min Rain = 0
KSVS 260955Z 01005KT M03/M04 A3013 RMK A01 T10331035  RH  099%=      5-min Rain = 0
KSVS 261000Z 01004KT M03/M04 A3015 RMK A01 T10341036  RH  099%=      5-min Rain = 0
KSVS 261005Z 01004KT M03/M03 A3015 RMK A01 T10301032  RH  099%=      5-min Rain = 0
KSVS 261010Z 00004KT M03/M03 A3016 RMK A01 T10291031  RH  099%=      5-min Rain = 0
KSVS 261015Z 36005KT M03/M03 A3016 RMK A01 T10321034  RH  099%=      5-min Rain = 0
KSVS 261020Z 36004KT M03/M04 A3016 RMK A01 T10341036  RH  099%=      5-min Rain = 0
KSVS 261025Z 01004KT M04/M04 A3016 RMK A01 T10361038  RH  099%=      5-min Rain = 0
KSVS 261030Z 00004KT M04/M04 A3017 RMK A01 T10371039  RH  099%=      5-min Rain = 0
KSVS 261035Z 36004KT M04/M04 A3018 RMK A01 T10371039  RH  099%=      5-min Rain = 0
KSVS 261040Z 36005KT M04/M04 A3018 RMK A01 T10391041  RH  099%=      5-min Rain = 0
KSVS 261045Z 36005KT M04/M05 A3018 RMK A01 T10431045  RH  099%=      5-min Rain = 0
KSVS 261050Z 01005KT M04/M05 A3016 RMK A01 T10441047  RH  099%=      5-min Rain = 0
KSVS 261055Z 00004KT M04/M05 A3018 RMK A01 T10441047  RH  099%=      5-min Rain = 0
KSVS 261100Z 00004KT M04/M05 A3019 RMK A01 T10441046  RH  099%=      5-min Rain = 0
KSVS 261105Z 01004KT M04/M05 A3018 RMK A01 T10441046  RH  099%=      5-min Rain = 0
KSVS 261110Z 02004KT M04/M05 A3018 RMK A01 T10441046  RH  099%=      5-min Rain = 0
KSVS 261115Z 01004KT M04/M05 A3016 RMK A01 T10441046  RH  099%=      5-min Rain = 0
KSVS 261120Z 01004KT M04/M05 A3016 RMK A01 T10441047  RH  099%=      5-min Rain = 0
KSVS 261125Z 02004KT M04/M05 A3016 RMK A01 T10441046  RH  099%=      5-min Rain = 0
KSVS 261130Z 02004KT M04/M05 A3014 RMK A01 T10431046  RH  099%=      5-min Rain = 0
KSVS 261135Z 02004KT M05/M05 A3014 RMK A01 T10451048  RH  099%=      5-min Rain = 0
KSVS 261140Z 02004KT M05/M05 A3015 RMK A01 T10471050  RH  098%=      5-min Rain = 0
KSVS 261145Z 02004KT M05/M05 A3016 RMK A01 T10481051  RH  098%=      5-min Rain = 0
KSVS 261150Z 02004KT M05/M05 A3016 RMK A01 T10491051  RH  098%=      5-min Rain = 0
KSVS 261155Z 01004KT M05/M05 A3016 RMK A01 T10481050  RH  098%=      5-min Rain = 0
KSVS 261200Z 01004KT M05/M05 A3017 RMK A01 T10481051  RH  098%=      5-min Rain = 0
KSVS 261205Z 02004KT M05/M05 A3016 RMK A01 T10481051  RH  098%=      5-min Rain = 0
KSVS 261210Z 02003KT M05/M05 A3018 RMK A01 T10471049  RH  099%=      5-min Rain = 0
KSVS 261215Z 02004KT M05/M05 A3017 RMK A01 T10471049  RH  099%=      5-min Rain = 0
KSVS 261220Z 02003KT M05/M05 A3017 RMK A01 T10471050  RH  098%=      5-min Rain = 0
KSVS 261225Z 01004KT M05/M05 A302 RMK A01 T10461049  RH  099%=      5-min Rain = 0
KSVS 261230Z 01003KT M05/M05 A3019 RMK A01 T10451047  RH  099%=      5-min Rain = 0
KSVS 261235Z 01004KT M05/M05 A3019 RMK A01 T10461049  RH  098%=      5-min Rain = 0
KSVS 261240Z 02004KT M05/M05 A302 RMK A01 T10481050  RH  098%=      5-min Rain = 0
KSVS 261245Z 01004KT M05/M05 A3019 RMK A01 T10481050  RH  098%=      5-min Rain = 0
KSVS 261250Z 01004KT M05/M05 A3018 RMK A01 T10481051  RH  098%=      5-min Rain = 0
KSVS 261255Z 01004KT M05/M05 A3018 RMK A01 T10491052  RH  098%=      5-min Rain = 0
KSVS 261300Z 36004KT M05/M05 A302 RMK A01 T10491052  RH  098%=      5-min Rain = 0
KSVS 261305Z 36005KT M05/M05 A302 RMK A01 T10491052  RH  098%=      5-min Rain = 0
KSVS 261310Z 01004KT M05/M05 A3021 RMK A01 T10501053  RH  098%=      5-min Rain = 0
KSVS 261315Z 01004KT M05/M05 A3021 RMK A01 T10501054  RH  098%=      5-min Rain = 0
KSVS 261320Z 01004KT M05/M05 A3021 RMK A01 T10501053  RH  098%=      5-min Rain = 0
KSVS 261325Z 01003KT M05/M05 A3021 RMK A01 T10501053  RH  098%=      5-min Rain = 0
KSVS 261330Z 02004KT M05/M05 A3019 RMK A01 T10501054  RH  098%=      5-min Rain = 0
KSVS 261335Z 02005KT M05/M06 A3018 RMK A01 T10521055  RH  098%=      5-min Rain = 0
KSVS 261340Z 02005KT M05/M06 A3019 RMK A01 T10541058  RH  097%=      5-min Rain = 0
KSVS 261345Z 02004KT M05/M06 A3019 RMK A01 T10541059  RH  097%=      5-min Rain = 0
KSVS 261350Z 03004KT M05/M06 A3018 RMK A01 T10531057  RH  097%=      5-min Rain = 0
KSVS 261355Z 03004KT M05/M06 A3018 RMK A01 T10541058  RH  097%=      5-min Rain = 0
KSVS 261400Z 03004KT M05/M06 A3018 RMK A01 T10541058  RH  097%=      5-min Rain = 0
KSVS 261405Z 03003KT M05/M06 A3019 RMK A01 T10531056  RH  097%=      5-min Rain = 0
KSVS 261410Z 02003KT M05/M06 A3021 RMK A01 T10521055  RH  098%=      5-min Rain = 0
KSVS 261415Z 02003KT M05/M06 A3021 RMK A01 T10511055  RH  098%=      5-min Rain = 0
KSVS 261420Z 01004KT M05/M06 A3021 RMK A01 T10511055  RH  098%=      5-min Rain = 0
KSVS 261425Z 01005KT M05/M06 A302 RMK A01 T10521056  RH  097%=      5-min Rain = 0
KSVS 261430Z 01004KT M05/M06 A3021 RMK A01 T10531057  RH  097%=      5-min Rain = 0
KSVS 261435Z 02004KT M05/M06 A3021 RMK A01 T10521057  RH  097%=      5-min Rain = 0
KSVS 261440Z 02004KT M05/M06 A302 RMK A01 T10521057  RH  096%=      5-min Rain = 0
KSVS 261445Z 01004KT M05/M06 A3022 RMK A01 T10511056  RH  096%=      5-min Rain = 0
KSVS 261450Z 01004KT M05/M06 A3021 RMK A01 T10511056  RH  096%=      5-min Rain = 0
KSVS 261455Z 02004KT M05/M06 A3021 RMK A01 T10501056  RH  096%=      5-min Rain = 0
KSVS 261500Z 02003KT M05/M06 A3023 RMK A01 T10511057  RH  096%=      5-min Rain = 0
KSVS 261505Z 01004KT M05/M06 A3022 RMK A01 T10511057  RH  096%=      5-min Rain = 0
KSVS 261510Z 01004KT M05/M06 A3021 RMK A01 T10511057  RH  096%=      5-min Rain = 0
KSVS 261515Z 01004KT M05/M06 A3021 RMK A01 T10501057  RH  096%=      5-min Rain = 0
KSVS 261520Z 01004KT M05/M06 A3022 RMK A01 T10511057  RH  095%=      5-min Rain = 0
KSVS 261525Z 01003KT M05/M06 A3024 RMK A01 T10511057  RH  095%=      5-min Rain = 0
KSVS 261530Z 01003KT M05/M06 A3024 RMK A01 T10501056  RH  096%=      5-min Rain = 0
KSVS 261535Z 01004KT M05/M06 A3023 RMK A01 T10501056  RH  096%=      5-min Rain = 0
KSVS 261540Z 01004KT M05/M06 A3023 RMK A01 T10511057  RH  096%=      5-min Rain = 0
KSVS 261545Z 01004KT M05/M06 A3022 RMK A01 T10511056  RH  096%=      5-min Rain = 0
KSVS 261550Z 01004KT M05/M06 A3023 RMK A01 T10511057  RH  096%=      5-min Rain = 0
KSVS 261555Z 00004KT M05/M06 A3024 RMK A01 T10521057  RH  096%=      5-min Rain = 0
KSVS 261600Z 01004KT M05/M06 A3024 RMK A01 T10521057  RH  096%=      5-min Rain = 0
KSVS 261605Z 01004KT M05/M06 A3023 RMK A01 T10521057  RH  096%=      5-min Rain = 0
KSVS 261610Z 01004KT M05/M06 A3023 RMK A01 T10521057  RH  096%=      5-min Rain = 0
KSVS 261615Z 02004KT M05/M06 A3024 RMK A01 T10521058  RH  096%=      5-min Rain = 0
KSVS 261620Z 01004KT M05/M06 A3024 RMK A01 T10521058  RH  096%=      5-min Rain = 0
KSVS 261625Z 02003KT M05/M06 A3025 RMK A01 T10511057  RH  096%=      5-min Rain = 0
KSVS 261630Z 01003KT M05/M06 A3025 RMK A01 T10511057  RH  096%=      5-min Rain = 0
KSVS 261635Z 02003KT M05/M06 A3026 RMK A01 T10511057  RH  096%=      5-min Rain = 0
KSVS 261640Z 01004KT M05/M06 A3025 RMK A01 T10521058  RH  096%=      5-min Rain = 0
KSVS 261645Z 00004KT M06/M06 A3025 RMK A01 T10551062  RH  095%=      5-min Rain = 0
KSVS 261650Z 00003KT M06/M06 A3025 RMK A01 T10551061  RH  096%=      5-min Rain = 0
KSVS 261655Z 00004KT M05/M06 A3025 RMK A01 T10541059  RH  096%=      5-min Rain = 0
KSVS 261700Z 01004KT M05/M06 A3025 RMK A01 T10531059  RH  096%=      5-min Rain = 0
KSVS 261705Z 01004KT M05/M06 A3025 RMK A01 T10531058  RH  096%=      5-min Rain = 0
KSVS 261710Z 02004KT M05/M06 A3025 RMK A01 T10521057  RH  096%=      5-min Rain = 0
KSVS 261715Z 01004KT M05/M06 A3025 RMK A01 T10521058  RH  096%=      5-min Rain = 0
KSVS 261720Z 01003KT M05/M06 A3024 RMK A01 T10501055  RH  096%=      5-min Rain = 0
KSVS 261725Z 01003KT M05/M05 A3024 RMK A01 T10491054  RH  096%=      5-min Rain = 0
KSVS 261730Z 00004KT M05/M06 A3024 RMK A01 T10491055  RH  096%=      5-min Rain = 0
KSVS 261735Z 00004KT M05/M06 A3024 RMK A01 T10491055  RH  096%=      5-min Rain = 0
KSVS 261740Z 01004KT M05/M06 A3024 RMK A01 T10491055  RH  096%=      5-min Rain = 0
KSVS 261745Z 01004KT M05/M06 A3024 RMK A01 T10491056  RH  095%=      5-min Rain = 0
KSVS 261750Z 01004KT M05/M06 A3023 RMK A01 T10491056  RH  095%=      5-min Rain = 0
KSVS 261755Z 01004KT M05/M06 A3023 RMK A01 T10501057  RH  095%=      5-min Rain = 0
KSVS 261800Z 01004KT M05/M06 A3023 RMK A01 T10501057  RH  095%=      5-min Rain = 0
KSVS 261805Z 01004KT M05/M06 A3023 RMK A01 T10501056  RH  096%=      5-min Rain = 0
KSVS 261810Z 01004KT M05/M06 A3023 RMK A01 T10501056  RH  096%=      5-min Rain = 0
KSVS 261815Z 00004KT M05/M06 A3022 RMK A01 T10501056  RH  096%=      5-min Rain = 0
KSVS 261820Z 01004KT M05/M06 A3022 RMK A01 T10511057  RH  096%=      5-min Rain = 0
KSVS 261825Z 01004KT M05/M06 A3022 RMK A01 T10501056  RH  096%=      5-min Rain = 0
KSVS 261830Z 01004KT M05/M06 A3022 RMK A01 T10521057  RH  096%=      5-min Rain = 0
KSVS 261835Z 01004KT M05/M06 A3022 RMK A01 T10521058  RH  096%=      5-min Rain = 0
KSVS 261840Z 01004KT M05/M06 A3022 RMK A01 T10521058  RH  096%=      5-min Rain = 0
KSVS 261845Z 01004KT M05/M06 A3022 RMK A01 T10521058  RH  096%=      5-min Rain = 0
KSVS 261850Z 01005KT M05/M06 A3021 RMK A01 T10521059  RH  096%=      5-min Rain = 0
KSVS 261855Z 01004KT M05/M06 A3021 RMK A01 T10521058  RH  096%=      5-min Rain = 0
KSVS 261900Z 01004KT M05/M06 A3021 RMK A01 T10511056  RH  096%=      5-min Rain = 0
KSVS 261905Z 01004KT M05/M06 A3021 RMK A01 T10491055  RH  096%=      5-min Rain = 0
KSVS 261910Z 01004KT M05/M06 A3021 RMK A01 T10501056  RH  096%=      5-min Rain = 0
KSVS 261915Z 00004KT M05/M06 A3021 RMK A01 T10511056  RH  096%=      5-min Rain = 0
KSVS 261920Z 00004KT M05/M06 A3021 RMK A01 T10511057  RH  096%=      5-min Rain = 0
KSVS 261925Z 01004KT M05/M06 A302 RMK A01 T10511057  RH  096%=      5-min Rain = 0
KSVS 261930Z 01004KT M05/M06 A302 RMK A01 T10511056  RH  096%=      5-min Rain = 0
KSVS 261935Z 01004KT M05/M06 A302 RMK A01 T10521057  RH  096%=      5-min Rain = 0
KSVS 261940Z 01004KT M05/M06 A302 RMK A01 T10511057  RH  096%=      5-min Rain = 0
KSVS 261945Z 01004KT M05/M06 A302 RMK A01 T10521058  RH  096%=      5-min Rain = 0
KSVS 261950Z 01005KT M05/M06 A3019 RMK A01 T10531058  RH  096%=      5-min Rain = 0
KSVS 261955Z 01004KT M05/M06 A3019 RMK A01 T10521058  RH  096%=      5-min Rain = 0
KSVS 262000Z 00004KT M05/M06 A3019 RMK A01 T10521057  RH  096%=      5-min Rain = 0
KSVS 262005Z 00004KT M05/M06 A3019 RMK A01 T10531058  RH  096%=      5-min Rain = 0
KSVS 262010Z 01004KT M05/M06 A3019 RMK A01 T10531058  RH  096%=      5-min Rain = 0
KSVS 262015Z 01005KT M05/M06 A3019 RMK A01 T10531058  RH  096%=      5-min Rain = 0
KSVS 262020Z 01004KT M05/M06 A3018 RMK A01 T10531058  RH  096%=      5-min Rain = 0
KSVS 262025Z 01004KT M05/M06 A3018 RMK A01 T10521057  RH  096%=      5-min Rain = 0
KSVS 262030Z 00004KT M05/M06 A3018 RMK A01 T10521056  RH  097%=      5-min Rain = 0
KSVS 262035Z 01004KT M05/M06 A3018 RMK A01 T10531058  RH  096%=      5-min Rain = 0
KSVS 262040Z 01004KT M05/M06 A3018 RMK A01 T10531059  RH  096%=      5-min Rain = 0
KSVS 262045Z 01004KT M05/M06 A3018 RMK A01 T10541059  RH  096%=      5-min Rain = 0
KSVS 262050Z 01004KT M05/M06 A3018 RMK A01 T10531059  RH  096%=      5-min Rain = 0
KSVS 262055Z 01004KT M05/M06 A3018 RMK A01 T10531058  RH  096%=      5-min Rain = 0
KSVS 262100Z 01005KT M05/M06 A3018 RMK A01 T10531058  RH  096%=      5-min Rain = 0
KSVS 262105Z 01004KT M05/M06 A3018 RMK A01 T10541060  RH  096%=      5-min Rain = 0
KSVS 262110Z 01005KT M05/M06 A3018 RMK A01 T10541059  RH  097%=      5-min Rain = 0
KSVS 262115Z 02004KT M05/M06 A3018 RMK A01 T10541058  RH  097%=      5-min Rain = 0
KSVS 262120Z 01004KT M05/M06 A3018 RMK A01 T10531058  RH  097%=      5-min Rain = 0
KSVS 262125Z 01005KT M05/M06 A3018 RMK A01 T10541059  RH  097%=      5-min Rain = 0
KSVS 262130Z 01004KT M05/M06 A3018 RMK A01 T10531057  RH  097%=      5-min Rain = 0
KSVS 262135Z 02004KT M05/M06 A3018 RMK A01 T10531058  RH  097%=      5-min Rain = 0
KSVS 262140Z 01004KT M05/M06 A3018 RMK A01 T10521057  RH  097%=      5-min Rain = 0
KSVS 262145Z 01004KT M05/M06 A3018 RMK A01 T10521057  RH  097%=      5-min Rain = 0
KSVS 262150Z 02004KT M05/M06 A3018 RMK A01 T10521056  RH  097%=      5-min Rain = 0
KSVS 262155Z 01005KT M05/M06 A3018 RMK A01 T10531057  RH  097%=      5-min Rain = 0
KSVS 262200Z 01004KT M05/M06 A3018 RMK A01 T10531057  RH  097%=      5-min Rain = 0
KSVS 262205Z 01004KT M05/M06 A3018 RMK A01 T10531057  RH  097%=      5-min Rain = 0
KSVS 262210Z 01004KT M05/M06 A3018 RMK A01 T10531057  RH  097%=      5-min Rain = 0
KSVS 262215Z 01005KT M05/M06 A3018 RMK A01 T10531057  RH  097%=      5-min Rain = 0
KSVS 262220Z 01004KT M05/M06 A3018 RMK A01 T10531057  RH  097%=      5-min Rain = 0
KSVS 262225Z 01004KT M05/M06 A3018 RMK A01 T10531057  RH  097%=      5-min Rain = 0
KSVS 262230Z 01005KT M05/M06 A3018 RMK A01 T10531058  RH  097%=      5-min Rain = 0
KSVS 262235Z 01005KT M05/M06 A3018 RMK A01 T10541058  RH  097%=      5-min Rain = 0
KSVS 262240Z 01004KT M05/M06 A3019 RMK A01 T10541058  RH  097%=      5-min Rain = 0
KSVS 262245Z 01004KT M05/M06 A3018 RMK A01 T10531057  RH  097%=      5-min Rain = 0
KSVS 262250Z 01005KT M05/M06 A3018 RMK A01 T10541058  RH  097%=      5-min Rain = 0
KSVS 262255Z 01005KT M05/M06 A3018 RMK A01 T10541058  RH  097%=      5-min Rain = 0
KSVS 262300Z 02004KT M06/M06 A3018 RMK A01 T10551059  RH  097%=      5-min Rain = 0
KSVS 262305Z 01004KT M05/M06 A3018 RMK A01 T10541058  RH  097%=      5-min Rain = 0
KSVS 262310Z 01004KT M05/M06 A3018 RMK A01 T10541057  RH  097%=      5-min Rain = 0
KSVS 262315Z 01004KT M05/M06 A3018 RMK A01 T10531057  RH  098%=      5-min Rain = 0
KSVS 262320Z 01004KT M05/M06 A3019 RMK A01 T10531057  RH  098%=      5-min Rain = 0
KSVS 262325Z 01004KT M05/M06 A3019 RMK A01 T10531057  RH  098%=      5-min Rain = 0
KSVS 262330Z 01004KT M05/M06 A3019 RMK A01 T10541057  RH  098%=      5-min Rain = 0
KSVS 262335Z 01004KT M05/M06 A3019 RMK A01 T10541058  RH  097%=      5-min Rain = 0
KSVS 262340Z 01004KT M05/M06 A302 RMK A01 T10541057  RH  098%=      5-min Rain = 0
KSVS 262345Z 00004KT M05/M06 A302 RMK A01 T10541057  RH  098%=      5-min Rain = 0
KSVS 262350Z 00004KT M05/M06 A302 RMK A01 T10541057  RH  098%=      5-min Rain = 0
KSVS 262355Z 01004KT M06/M06 A302 RMK A01 T10551058  RH  098%=      5-min Rain = 0
KSVS 270000Z 01004KT M06/M06 A302 RMK A01 T10561060  RH  098%=      5-min Rain = 0
KSVS 270005Z 01004KT M06/M06 A302 RMK A01 T10571060  RH  098%=      5-min Rain = 0
KSVS 270010Z 01004KT M06/M06 A302 RMK A01 T10571061  RH  098%=      5-min Rain = 0
KSVS 270015Z 01004KT M06/M06 A3021 RMK A01 T10571060  RH  098%=      5-min Rain = 0
KSVS 270020Z 01004KT M06/M06 A3021 RMK A01 T10571061  RH  098%=      5-min Rain = 0
KSVS 270025Z 01004KT M06/M06 A3021 RMK A01 T10571060  RH  098%=      5-min Rain = 0
KSVS 270030Z 01004KT M06/M06 A3021 RMK A01 T10571060  RH  098%=      5-min Rain = 0
KSVS 270035Z 01004KT M06/M06 A3021 RMK A01 T10561059  RH  098%=      5-min Rain = 0
KSVS 270040Z 01004KT M06/M06 A3021 RMK A01 T10561059  RH  098%=      5-min Rain = 0
KSVS 270045Z 01004KT M06/M06 A3021 RMK A01 T10571060  RH  098%=      5-min Rain = 0
KSVS 270050Z 01004KT M06/M06 A3021 RMK A01 T10561060  RH  098%=      5-min Rain = 0
KSVS 270055Z 01004KT M06/M06 A3021 RMK A01 T10571060  RH  098%=      5-min Rain = 0
KSVS 270100Z 01004KT M06/M06 A3021 RMK A01 T10571060  RH  098%=      5-min Rain = 0
KSVS 270105Z 01004KT M06/M06 A3021 RMK A01 T10581061  RH  098%=      5-min Rain = 0
KSVS 270110Z 00004KT M06/M06 A3022 RMK A01 T10571060  RH  098%=      5-min Rain = 0
KSVS 270115Z 00004KT M06/M06 A3022 RMK A01 T10561059  RH  098%=      5-min Rain = 0
KSVS 270120Z 01004KT M06/M06 A3022 RMK A01 T10571060  RH  098%=      5-min Rain = 0
KSVS 270125Z 01004KT M06/M06 A3021 RMK A01 T10571060  RH  098%=      5-min Rain = 0
KSVS 270130Z 01004KT M06/M06 A3021 RMK A01 T10571060  RH  098%=      5-min Rain = 0
KSVS 270135Z 01003KT M06/M06 A3022 RMK A01 T10571060  RH  098%=      5-min Rain = 0
KSVS 270140Z 01004KT M06/M06 A3022 RMK A01 T10581061  RH  098%=      5-min Rain = 0
KSVS 270145Z 01004KT M06/M06 A3022 RMK A01 T10581061  RH  098%=      5-min Rain = 0
KSVS 270150Z 01004KT M06/M06 A3022 RMK A01 T10591062  RH  098%=      5-min Rain = 0
KSVS 270155Z 00004KT M06/M06 A3022 RMK A01 T10591062  RH  098%=      5-min Rain = 0
KSVS 270200Z 00004KT M06/M06 A3022 RMK A01 T10591062  RH  098%=      5-min Rain = 0
KSVS 270205Z 01004KT M06/M06 A3022 RMK A01 T10611064  RH  098%=      5-min Rain = 0
KSVS 270210Z 01004KT M06/M07 A3022 RMK A01 T10611065  RH  098%=      5-min Rain = 0
KSVS 270215Z 01004KT M06/M07 A3022 RMK A01 T10621065  RH  098%=      5-min Rain = 0
KSVS 270220Z 01004KT M06/M07 A3022 RMK A01 T10621065  RH  098%=      5-min Rain = 0
KSVS 270225Z 01003KT M06/M07 A3022 RMK A01 T10621065  RH  098%=      5-min Rain = 0
KSVS 270230Z 01003KT M06/M06 A3022 RMK A01 T10611064  RH  098%=      5-min Rain = 0
KSVS 270235Z 01004KT M06/M06 A3022 RMK A01 T10611064  RH  098%=      5-min Rain = 0
KSVS 270240Z 01004KT M06/M06 A3021 RMK A01 T10611064  RH  098%=      5-min Rain = 0
KSVS 270245Z 01003KT M06/M06 A3021 RMK A01 T10601063  RH  098%=      5-min Rain = 0
KSVS 270250Z 01004KT M06/M06 A3021 RMK A01 T10601063  RH  098%=      5-min Rain = 0
KSVS 270255Z 01004KT M06/M07 A3021 RMK A01 T10621065  RH  098%=      5-min Rain = 0
KSVS 270300Z 02004KT M06/M07 A3021 RMK A01 T10631066  RH  098%=      5-min Rain = 0
KSVS 270305Z 02004KT M06/M07 A3021 RMK A01 T10621066  RH  098%=      5-min Rain = 0
KSVS 270310Z 01004KT M06/M07 A302 RMK A01 T10631066  RH  098%=      5-min Rain = 0
KSVS 270315Z 01003KT M06/M07 A302 RMK A01 T10621065  RH  098%=      5-min Rain = 0
KSVS 270320Z 01003KT M06/M07 A302 RMK A01 T10621065  RH  098%=      5-min Rain = 0
KSVS 270325Z 01003KT M06/M07 A302 RMK A01 T10621065  RH  098%=      5-min Rain = 0
KSVS 270330Z 01003KT M06/M07 A3021 RMK A01 T10621065  RH  098%=      5-min Rain = 0
KSVS 270335Z 01004KT M06/M07 A3021 RMK A01 T10621065  RH  098%=      5-min Rain = 0
KSVS 270340Z 00004KT M06/M07 A3021 RMK A01 T10621065  RH  098%=      5-min Rain = 0
KSVS 270345Z 01003KT M06/M07 A3021 RMK A01 T10621065  RH  098%=      5-min Rain = 0
KSVS 270350Z 01003KT M06/M07 A3022 RMK A01 T10621065  RH  098%=      5-min Rain = 0
KSVS 270355Z 00003KT M06/M07 A3022 RMK A01 T10631066  RH  098%=      5-min Rain = 0
KSVS 270400Z 00003KT M06/M07 A3022 RMK A01 T10631066  RH  098%=      5-min Rain = 0
KSVS 270405Z 00003KT M06/M07 A3022 RMK A01 T10631066  RH  098%=      5-min Rain = 0
KSVS 270410Z 00003KT M06/M07 A3023 RMK A01 T10631066  RH  098%=      5-min Rain = 0
KSVS 270415Z 00004KT M06/M07 A3023 RMK A01 T10641067  RH  098%=      5-min Rain = 0
KSVS 270420Z 00003KT M06/M07 A3022 RMK A01 T10641067  RH  098%=      5-min Rain = 0
KSVS 270425Z 36003KT M06/M07 A3022 RMK A01 T10631066  RH  098%=      5-min Rain = 0
KSVS 270430Z 36003KT M06/M07 A3022 RMK A01 T10621066  RH  098%=      5-min Rain = 0
KSVS 270435Z 00003KT M06/M07 A3022 RMK A01 T10631066  RH  098%=      5-min Rain = 0
KSVS 270440Z 36003KT M06/M07 A3022 RMK A01 T10621065  RH  098%=      5-min Rain = 0
KSVS 270445Z 00003KT M06/M07 A3022 RMK A01 T10621066  RH  098%=      5-min Rain = 0
KSVS 270450Z 00003KT M06/M07 A3022 RMK A01 T10621066  RH  098%=      5-min Rain = 0
KSVS 270455Z 01003KT M06/M07 A3022 RMK A01 T10631067  RH  097%=      5-min Rain = 0

Page generated in 0.0179 seconds.